Change the Weather History Date:

Saturday, November 17, 2012

  Actual Average Record
Temperature  
Mean Temperature 80 °F -  
Max Temperature 97 °F 89 °F 97 °F (2012)
Min Temperature 64 °F 68 °F 55 °F (2000)
Cooling Degree Days 16    
Growing Degree Days 30 (Base 50)    
Moisture  
Dew Point 61 °F    
Average Humidity 52    
Maximum Humidity 94    
Minimum Humidity 20    
Precipitation  
Precipitation 0.00 in 0.21 in - ()
Sea Level Pressure  
Sea Level Pressure 29.87 in    
Wind  
Wind Speed 5 mph ()    
Max Wind Speed 13 mph    
Max Gust Speed -    
Visibility 7.9 miles    
Events      
Averages and records for this station are not official NWS values.
T = Trace of Precipitation, MM = Missing Value Source: Averaged Metar Reports

Daily Weather History Graph

Daily Weather History Graph

Search for Another Location

Airport or City:

Trip Planner

Search our weather history database for the weather conditions in past years. The results will help you decide how hot, cold, wet, or windy it might be!

Date:

Astronomy

Nov. 17, 2012 Rise Set
Actual Time 5:54 AM ART 7:21 PM ART
Civil Twilight 5:29 AM ART 7:46 PM ART
Nautical Twilight 4:59 AM ART 8:16 PM ART
Astronomical Twilight 4:28 AM ART 8:47 PM ART
Moon 9:34 AM ART (11/17) 11:17 PM ART (11/17)
Length of Visible Light 14h 17m
Length of Day
13h 27m
Waxing Crescent, 19% of the Moon is Illuminated
Nov 17
Waxing Crescent
Nov 20
First Quarter
Nov 28
Full
Dec 6
Last Quarter
Dec 13
New

Hourly Weather History & Observations

Time (ART) Temp. Heat Index Dew Point Humidity Pressure Visibility Wind Dir Wind Speed Gust Speed Precip Events Conditions
12:00 AM 71.6 °F - 60.8 °F 69% 29.86 in - SE 3.5 mph - N/A   Clear
1:00 AM 71.6 °F - 60.8 °F 69% 29.86 in - SE 3.5 mph - N/A   Clear
2:00 AM 69.8 °F - 62.6 °F 78% 29.86 in - SE 2.3 mph - N/A   Clear
3:00 AM 68 °F - 63 °F 78% 29.86 in 12 mi South 2.3 mph - -  
3:00 AM 68.0 °F - 62.6 °F 83% 29.86 in - South 2.3 mph - N/A   Clear
4:00 AM 68.0 °F - 62.6 °F 83% 29.89 in - South 3.5 mph - N/A   Clear
5:00 AM 66.2 °F - 62.6 °F 88% 29.89 in - South 3.5 mph - N/A   Clear
6:00 AM 64.4 °F - 62.6 °F 94% 29.89 in - SE 4.6 mph - N/A   Clear
7:00 AM 69.8 °F - 64.4 °F 83% 29.92 in - SE 6.9 mph - N/A   Clear
8:00 AM 77.0 °F - 64.4 °F 65% 29.92 in - East 6.9 mph - N/A   Clear
9:00 AM 83 °F - 64 °F 43% 29.91 in 12 mi ESE 6.9 mph - -  
9:00 AM 82.4 °F 83.9 °F 64.4 °F 54% 29.92 in - ESE 6.9 mph - N/A   Clear
10:00 AM 89.6 °F 88.9 °F 59.0 °F 36% 29.92 in - ENE 12.7 mph - N/A   Clear
11:00 AM 91.4 °F 89.4 °F 55.4 °F 29% 29.92 in - East 8.1 mph - N/A   Clear
12:00 PM 95.0 °F 93.0 °F 55.4 °F 26% 29.89 in - NE 6.9 mph - N/A   Clear
1:00 PM 95.0 °F 93.7 °F 57.2 °F 28% 29.89 in 6.2 mi NE 10.4 mph - N/A   Partly Cloudy
2:00 PM 95.0 °F 94.4 °F 59.0 °F 30% 29.86 in 6.2 mi ENE 6.9 mph - N/A   Partly Cloudy
3:00 PM 96 °F - 59 °F 20% 29.82 in 12 mi NE 10.4 mph - -   Scattered Clouds
3:00 PM 96.8 °F 96.2 °F 59.0 °F 28% 29.83 in 6.2 mi NE 10.4 mph - N/A   Partly Cloudy
4:00 PM 96.8 °F 97.1 °F 60.8 °F 30% 29.83 in 6.2 mi ENE 11.5 mph - N/A   Partly Cloudy
5:00 PM 95.0 °F 94.4 °F 59.0 °F 30% 29.80 in 6.2 mi ENE 9.2 mph - N/A   Partly Cloudy
6:00 PM 95.0 °F 94.4 °F 59.0 °F 30% 29.80 in 6.2 mi ESE 9.2 mph - N/A   Partly Cloudy
7:00 PM 89.6 °F 90.1 °F 62.6 °F 40% 29.83 in 6.2 mi ESE 5.8 mph - N/A   Partly Cloudy
8:00 PM 86.0 °F 86.6 °F 62.6 °F 45% 29.83 in 6.2 mi SE 5.8 mph - N/A   Partly Cloudy
9:00 PM 85 °F - 64 °F 40% 29.83 in 12 mi SE 8.1 mph - -   Partly Cloudy
9:00 PM 84.2 °F 85.6 °F 64.4 °F 51% 29.83 in 6.2 mi SE 8.1 mph - N/A   Scattered Clouds
10:00 PM 84.2 °F 85.6 °F 64.4 °F 51% 29.86 in 6.2 mi East 6.9 mph - N/A   Mostly Cloudy
11:00 PM 82.4 °F 84.6 °F 66.2 °F 58% 29.86 in - ESE 5.8 mph - N/A   Clear